Time,TemperatureF,DewpointF,PressureIn,WindDirection,WindDirectionDegrees,WindSpeedMPH,WindSpeedGustMPH,Humidity,HourlyPrecipIn,Conditions,Clouds,dailyrainin,SolarRadiationWatts/m^2,SoftwareType,DateUTC
2013-03-25 00:05:00,57.6,43.8,29.58,SE,138,1.0,3.0,60,0.00,,,0.00,0,Wunderground v.1.15,2013-03-24 23:05:00,
2013-03-25 00:11:00,57.0,44.1,29.58,SE,141,2.0,4.0,62,0.00,,,0.00,0,Wunderground v.1.15,2013-03-24 23:11:00,
2013-03-25 00:21:00,55.7,44.5,29.59,SE,143,3.0,5.0,66,0.00,,,0.00,0,Wunderground v.1.15,2013-03-24 23:21:00,
2013-03-25 00:35:00,55.0,44.6,29.59,SSE,152,1.0,1.0,68,0.00,,,0.00,0,Wunderground v.1.15,2013-03-24 23:35:00,
2013-03-25 00:45:00,54.5,44.5,29.59,SSE,152,1.0,1.0,69,0.00,,,0.00,0,Wunderground v.1.15,2013-03-24 23:45:00,
2013-03-25 00:56:00,53.9,44.0,29.58,SSW,196,1.0,1.0,69,0.00,,,0.00,0,Wunderground v.1.15,2013-03-24 23:56:00,
2013-03-25 01:05:00,53.3,43.8,29.58,SSW,196,1.0,1.0,70,0.00,,,0.00,0,Wunderground v.1.15,2013-03-25 00:05:00,
2013-03-25 01:15:00,52.8,44.0,29.58,SSW,196,1.0,1.0,72,0.00,,,0.00,0,Wunderground v.1.15,2013-03-25 00:15:00,
2013-03-25 01:30:00,52.1,44.1,29.59,SSW,197,1.0,1.0,74,0.00,,,0.00,0,Wunderground v.1.15,2013-03-25 00:30:00,
2013-03-25 01:40:00,51.5,43.8,29.58,WSW,250,2.0,2.0,75,0.00,,,0.00,0,Wunderground v.1.15,2013-03-25 00:40:00,
2013-03-25 01:51:00,50.9,43.6,29.58,WSW,257,2.0,2.0,76,0.00,,,0.00,0,Wunderground v.1.15,2013-03-25 00:51:00,
2013-03-25 02:05:00,50.8,43.8,29.58,WSW,257,0.0,1.0,77,0.00,,,0.00,0,Wunderground v.1.15,2013-03-25 01:05:00,
2013-03-25 02:15:00,50.7,44.1,29.58,NW,315,1.0,1.0,78,0.00,,,0.00,0,Wunderground v.1.15,2013-03-25 01:15:00,
2013-03-25 02:25:00,50.6,44.3,29.58,West,276,0.0,2.0,79,0.00,,,0.00,0,Wunderground v.1.15,2013-03-25 01:25:00,
2013-03-25 02:35:00,50.4,44.1,29.58,WNW,293,2.0,2.0,79,0.00,,,0.00,0,Wunderground v.1.15,2013-03-25 01:35:00,
2013-03-25 02:45:00,50.4,44.1,29.58,NW,304,1.0,1.0,79,0.00,,,0.00,0,Wunderground v.1.15,2013-03-25 01:45:00,
2013-03-25 02:56:00,50.8,44.5,29.58,West,260,3.0,3.0,79,0.00,,,0.00,0,Wunderground v.1.15,2013-03-25 01:56:00,
2013-03-25 03:05:00,52.7,45.0,29.58,WNW,283,4.0,5.0,75,0.00,,,0.00,0,Wunderground v.1.15,2013-03-25 02:05:00,
2013-03-25 03:15:00,55.6,44.4,29.57,West,271,7.0,7.0,66,0.00,,,0.00,0,Wunderground v.1.15,2013-03-25 02:15:00,
2013-03-25 03:30:00,57.1,43.3,29.58,North,355,7.0,7.0,60,0.00,,,0.00,0,Wunderground v.1.15,2013-03-25 02:30:00,
2013-03-25 03:45:00,57.4,42.7,29.58,WNW,294,7.0,7.0,58,0.00,,,0.00,0,Wunderground v.1.15,2013-03-25 02:45:00,
2013-03-25 03:55:00,57.3,42.6,29.59,NW,325,6.0,6.0,58,0.00,,,0.00,0,Wunderground v.1.15,2013-03-25 02:55:00,
2013-03-25 04:10:00,57.2,41.6,29.59,West,281,6.0,6.0,56,0.00,,,0.00,0,Wunderground v.1.15,2013-03-25 03:10:00,
2013-03-25 04:25:00,57.3,41.7,29.60,NW,313,5.0,5.0,56,0.00,,,0.00,0,Wunderground v.1.15,2013-03-25 03:25:00,
2013-03-25 04:36:00,57.1,42.0,29.60,WNW,292,4.0,4.0,57,0.00,,,0.00,0,Wunderground v.1.15,2013-03-25 03:36:00,
2013-03-25 04:45:00,57.0,41.9,29.60,North,360,6.0,6.0,57,0.00,,,0.00,0,Wunderground v.1.15,2013-03-25 03:45:00,
2013-03-25 04:55:00,56.9,42.3,29.60,NNW,331,6.0,6.0,58,0.00,,,0.00,0,Wunderground v.1.15,2013-03-25 03:55:00,
2013-03-25 05:06:00,56.7,42.5,29.61,West,267,6.0,6.0,59,0.00,,,0.00,0,Wunderground v.1.15,2013-03-25 04:06:00,
2013-03-25 05:10:00,56.6,42.9,29.61,NW,319,5.0,10.0,60,0.00,,,0.00,0,Wunderground v.1.15,2013-03-25 04:10:00,
2013-03-25 05:20:00,56.3,43.0,29.62,WNW,297,7.0,10.0,61,0.00,,,0.00,0,Wunderground v.1.15,2013-03-25 04:20:00,
2013-03-25 05:25:00,56.2,43.3,29.62,West,279,8.0,10.0,62,0.00,,,0.00,0,Wunderground v.1.15,2013-03-25 04:25:00,
2013-03-25 05:35:00,56.2,43.3,29.63,WNW,297,7.0,8.0,62,0.00,,,0.00,0,Wunderground v.1.15,2013-03-25 04:35:00,
2013-03-25 05:45:00,56.0,42.7,29.63,West,273,9.0,10.0,61,0.00,,,0.00,0,Wunderground v.1.15,2013-03-25 04:45:00,
2013-03-25 05:56:00,56.1,42.4,29.63,NW,323,10.0,10.0,60,0.00,,,0.00,0,Wunderground v.1.15,2013-03-25 04:56:00,
2013-03-25 06:05:00,56.2,42.9,29.64,North,349,9.0,17.0,61,0.00,,,0.00,0,Wunderground v.1.15,2013-03-25 05:05:00,
2013-03-25 06:15:00,56.0,43.2,29.65,North,10,7.0,9.0,62,0.00,,,0.00,0,Wunderground v.1.15,2013-03-25 05:15:00,
2013-03-25 06:26:00,55.8,43.0,29.65,WNW,302,9.0,17.0,62,0.00,,,0.00,0,Wunderground v.1.15,2013-03-25 05:26:00,
2013-03-25 06:35:00,55.7,42.5,29.66,NW,309,9.0,17.0,61,0.00,,,0.00,0,Wunderground v.1.15,2013-03-25 05:35:00,
2013-03-25 06:41:00,55.7,42.5,29.65,NW,325,8.0,8.0,61,0.00,,,0.00,0,Wunderground v.1.15,2013-03-25 05:41:00,
2013-03-25 06:55:00,55.7,42.5,29.66,NW,321,6.0,6.0,61,0.00,,,0.00,11,Wunderground v.1.15,2013-03-25 05:55:00,
2013-03-25 07:06:00,55.7,42.5,29.67,WNW,300,6.0,7.0,61,0.00,,,0.00,37,Wunderground v.1.15,2013-03-25 06:06:00,
2013-03-25 07:20:00,55.9,42.6,29.67,WNW,298,6.0,10.0,61,0.00,,,0.00,95,Wunderground v.1.15,2013-03-25 06:20:00,
2013-03-25 07:26:00,56.0,42.3,29.67,West,260,6.0,10.0,60,0.00,,,0.00,114,Wunderground v.1.15,2013-03-25 06:26:00,
2013-03-25 07:40:00,56.5,41.9,29.67,NW,311,8.0,8.0,58,0.00,,,0.00,160,Wunderground v.1.15,2013-03-25 06:40:00,
2013-03-25 07:50:00,56.7,42.1,29.67,NNW,338,7.0,11.0,58,0.00,,,0.00,197,Wunderground v.1.15,2013-03-25 06:50:00,
2013-03-25 08:05:00,56.8,43.1,29.67,NW,309,8.0,8.0,60,0.00,,,0.00,243,Wunderground v.1.15,2013-03-25 07:05:00,
2013-03-25 08:11:00,56.7,43.0,29.67,NNW,331,9.0,10.0,60,0.00,,,0.00,260,Wunderground v.1.15,2013-03-25 07:11:00,
2013-03-25 08:25:00,56.6,42.4,29.69,WNW,287,10.0,10.0,59,0.00,,,0.00,313,Wunderground v.1.15,2013-03-25 07:25:00,
2013-03-25 08:35:00,56.8,43.1,29.69,NW,314,8.0,8.0,60,0.00,,,0.00,345,Wunderground v.1.15,2013-03-25 07:35:00,
2013-03-25 08:46:00,57.1,42.5,29.69,West,269,7.0,7.0,58,0.00,,,0.00,380,Wunderground v.1.15,2013-03-25 07:46:00,
2013-03-25 08:55:00,57.5,42.8,29.69,WNW,296,6.0,17.0,58,0.00,,,0.00,410,Wunderground v.1.15,2013-03-25 07:55:00,
2013-03-25 09:05:00,57.7,42.1,29.69,NW,310,5.0,6.0,56,0.00,,,0.00,459,Wunderground v.1.15,2013-03-25 08:05:00,
2013-03-25 09:15:00,58.6,42.5,29.70,West,279,4.0,5.0,55,0.00,,,0.00,517,Wunderground v.1.15,2013-03-25 08:15:00,
2013-03-25 09:35:00,59.6,41.9,29.70,SSW,203,4.0,4.0,52,0.00,,,0.00,199,Wunderground v.1.15,2013-03-25 08:35:00,
2013-03-25 09:40:00,59.6,41.9,29.70,SSW,207,5.0,5.0,52,0.00,,,0.00,176,Wunderground v.1.15,2013-03-25 08:40:00,
2013-03-25 10:05:00,58.0,41.9,29.71,ENE,68,6.0,6.0,55,0.00,,,0.00,139,Wunderground v.1.15,2013-03-25 09:05:00,
2013-03-25 10:15:00,57.6,41.1,29.72,West,273,9.0,9.0,54,0.00,,,0.00,786,Wunderground v.1.15,2013-03-25 09:15:00,
2013-03-25 10:25:00,57.1,41.1,29.72,WNW,288,8.0,8.0,55,0.00,,,0.00,171,Wunderground v.1.15,2013-03-25 09:25:00,
2013-03-25 10:40:00,57.5,41.0,29.72,ESE,109,4.0,4.0,54,0.00,,,0.00,132,Wunderground v.1.15,2013-03-25 09:40:00,
2013-03-25 10:55:00,58.0,41.0,29.71,West,264,4.0,4.0,53,0.00,,,0.00,155,Wunderground v.1.15,2013-03-25 09:55:00,
2013-03-25 11:10:00,58.2,41.1,29.71,WNW,295,5.0,5.0,53,0.00,,,0.00,155,Wunderground v.1.15,2013-03-25 10:10:00,
2013-03-25 11:21:00,59.6,41.9,29.72,West,281,4.0,5.0,52,0.00,,,0.00,911,Wunderground v.1.15,2013-03-25 10:21:00,
2013-03-25 11:31:00,59.0,41.4,29.72,WSW,241,9.0,9.0,52,0.00,,,0.00,860,Wunderground v.1.15,2013-03-25 10:31:00,
2013-03-25 11:45:00,60.5,41.8,29.72,WSW,242,6.0,6.0,50,0.00,,,0.00,904,Wunderground v.1.15,2013-03-25 10:45:00,
2013-03-25 11:56:00,61.6,42.8,29.71,SW,235,7.0,8.0,50,0.00,,,0.00,893,Wunderground v.1.15,2013-03-25 10:56:00,
2013-03-25 12:10:00,62.6,43.2,29.71,West,279,7.0,7.0,49,0.00,,,0.00,882,Wunderground v.1.15,2013-03-25 11:10:00,
2013-03-25 12:20:00,63.1,43.6,29.71,WSW,247,7.0,9.0,49,0.00,,,0.00,895,Wunderground v.1.15,2013-03-25 11:20:00,
2013-03-25 12:31:00,63.2,43.2,29.71,WNW,302,6.0,6.0,48,0.00,,,0.00,902,Wunderground v.1.15,2013-03-25 11:31:00,
2013-03-25 12:45:00,62.7,42.2,29.71,WNW,291,6.0,8.0,47,0.00,,,0.00,881,Wunderground v.1.15,2013-03-25 11:45:00,
2013-03-25 12:55:00,63.4,43.4,29.71,WNW,297,5.0,5.0,48,0.00,,,0.00,874,Wunderground v.1.15,2013-03-25 11:55:00,
2013-03-25 13:10:00,64.7,43.4,29.70,South,191,5.0,7.0,46,0.00,,,0.00,882,Wunderground v.1.15,2013-03-25 12:10:00,
2013-03-25 13:20:00,64.9,43.0,29.70,SSW,211,7.0,7.0,45,0.00,,,0.00,863,Wunderground v.1.15,2013-03-25 12:20:00,
2013-03-25 13:31:00,64.9,43.0,29.70,SW,222,6.0,9.0,45,0.00,,,0.00,858,Wunderground v.1.15,2013-03-25 12:31:00,
2013-03-25 13:46:00,64.3,42.5,29.70,WNW,286,8.0,8.0,45,0.00,,,0.00,851,Wunderground v.1.15,2013-03-25 12:46:00,
2013-03-25 14:05:00,63.0,41.9,29.68,WSW,256,8.0,8.0,46,0.00,,,0.00,826,Wunderground v.1.15,2013-03-25 13:05:00,
2013-03-25 14:15:00,63.5,42.3,29.67,West,259,7.0,7.0,46,0.00,,,0.00,817,Wunderground v.1.15,2013-03-25 13:15:00,
2013-03-25 14:26:00,64.2,41.2,29.67,West,269,6.0,6.0,43,0.00,,,0.00,805,Wunderground v.1.15,2013-03-25 13:26:00,
2013-03-25 14:36:00,64.3,41.3,29.67,SSW,205,7.0,7.0,43,0.00,,,0.00,789,Wunderground v.1.15,2013-03-25 13:36:00,
2013-03-25 14:50:00,64.3,40.7,29.67,SW,236,9.0,9.0,42,0.00,,,0.00,766,Wunderground v.1.15,2013-03-25 13:50:00,
2013-03-25 15:05:00,62.9,40.0,29.68,SW,217,9.0,9.0,43,0.00,,,0.00,738,Wunderground v.1.15,2013-03-25 14:05:00,
2013-03-25 15:15:00,62.5,39.7,29.68,West,261,10.0,12.0,43,0.00,,,0.00,751,Wunderground v.1.15,2013-03-25 14:15:00,
2013-03-25 15:30:00,62.1,39.9,29.68,West,270,10.0,15.0,44,0.00,,,0.00,712,Wunderground v.1.15,2013-03-25 14:30:00,
2013-03-25 15:40:00,62.3,40.1,29.67,West,268,10.0,10.0,44,0.00,,,0.00,652,Wunderground v.1.15,2013-03-25 14:40:00,
2013-03-25 15:51:00,62.4,40.8,29.67,SW,217,9.0,9.0,45,0.00,,,0.00,622,Wunderground v.1.15,2013-03-25 14:51:00,
2013-03-25 16:10:00,62.1,39.9,29.67,SW,229,10.0,10.0,44,0.00,,,0.00,564,Wunderground v.1.15,2013-03-25 15:10:00,
2013-03-25 16:25:00,62.4,41.3,29.67,West,259,7.0,7.0,46,0.00,,,0.00,517,Wunderground v.1.15,2013-03-25 15:25:00,
2013-03-25 16:40:00,62.3,41.8,29.67,WNW,300,7.0,10.0,47,0.00,,,0.00,439,Wunderground v.1.15,2013-03-25 15:40:00,
2013-03-25 16:50:00,62.3,41.2,29.67,West,263,7.0,9.0,46,0.00,,,0.00,427,Wunderground v.1.15,2013-03-25 15:50:00,
2013-03-25 16:56:00,62.1,41.6,29.67,West,275,8.0,9.0,47,0.00,,,0.00,367,Wunderground v.1.15,2013-03-25 15:56:00,
2013-03-25 17:15:00,62.0,41.5,29.67,WNW,290,6.0,6.0,47,0.00,,,0.00,348,Wunderground v.1.15,2013-03-25 16:15:00,
2013-03-25 17:25:00,61.7,41.3,29.67,WSW,257,7.0,7.0,47,0.00,,,0.00,313,Wunderground v.1.15,2013-03-25 16:25:00,
2013-03-25 17:40:00,61.5,41.1,29.67,SSW,203,6.0,8.0,47,0.00,,,0.00,105,Wunderground v.1.15,2013-03-25 16:40:00,
2013-03-25 17:51:00,61.0,40.6,29.67,WSW,237,4.0,4.0,47,0.00,,,0.00,62,Wunderground v.1.15,2013-03-25 16:51:00,
2013-03-25 18:10:00,59.7,40.0,29.66,WSW,253,6.0,8.0,48,0.00,,,0.00,46,Wunderground v.1.15,2013-03-25 17:10:00,
2013-03-25 18:20:00,59.5,39.2,29.67,WSW,244,6.0,10.0,47,0.00,,,0.00,33,Wunderground v.1.15,2013-03-25 17:20:00,
2013-03-25 18:31:00,59.4,39.7,29.67,West,272,9.0,14.0,48,0.00,,,0.00,28,Wunderground v.1.15,2013-03-25 17:31:00,
2013-03-25 18:46:00,60.0,41.3,29.67,SW,216,9.0,9.0,50,0.00,,,0.00,12,Wunderground v.1.15,2013-03-25 17:46:00,
2013-03-25 19:05:00,60.0,42.3,29.67,WSW,249,7.0,7.0,52,0.00,,,0.00,0,Wunderground v.1.15,2013-03-25 18:05:00,
2013-03-25 19:11:00,59.9,42.2,29.67,SW,221,6.0,7.0,52,0.00,,,0.00,0,Wunderground v.1.15,2013-03-25 18:11:00,
2013-03-25 19:25:00,59.3,44.1,29.67,SSW,198,6.0,7.0,57,0.00,,,0.00,0,Wunderground v.1.15,2013-03-25 18:25:00,
2013-03-25 19:36:00,59.0,44.7,29.67,SSE,155,5.0,5.0,59,0.00,,,0.00,0,Wunderground v.1.15,2013-03-25 18:36:00,
2013-03-25 19:50:00,59.0,45.6,29.66,SSW,194,7.0,7.0,61,0.00,,,0.00,0,Wunderground v.1.15,2013-03-25 18:50:00,
2013-03-25 20:10:00,59.4,45.5,29.66,WNW,285,9.0,9.0,60,0.00,,,0.00,0,Wunderground v.1.15,2013-03-25 19:10:00,
2013-03-25 20:20:00,60.1,45.7,29.66,WSW,250,10.0,14.0,59,0.00,,,0.00,0,Wunderground v.1.15,2013-03-25 19:20:00,
2013-03-25 20:30:00,60.5,45.6,29.65,WSW,254,12.0,12.0,58,0.00,,,0.00,0,Wunderground v.1.15,2013-03-25 19:30:00,
2013-03-25 20:45:00,60.5,45.6,29.66,West,268,10.0,12.0,58,0.00,,,0.00,0,Wunderground v.1.15,2013-03-25 19:45:00,
2013-03-25 20:56:00,60.5,45.6,29.66,NW,304,9.0,9.0,58,0.00,,,0.00,0,Wunderground v.1.15,2013-03-25 19:56:00,
2013-03-25 21:05:00,60.3,45.9,29.65,SW,217,8.0,13.0,59,0.00,,,0.00,0,Wunderground v.1.15,2013-03-25 20:05:00,
2013-03-25 21:15:00,60.1,46.2,29.65,WSW,240,9.0,9.0,60,0.00,,,0.00,0,Wunderground v.1.15,2013-03-25 20:15:00,
2013-03-25 21:30:00,60.0,46.1,29.65,West,267,7.0,8.0,60,0.00,,,0.00,0,Wunderground v.1.15,2013-03-25 20:30:00,
2013-03-25 21:35:00,59.8,45.9,29.65,SW,214,8.0,8.0,60,0.00,,,0.00,0,Wunderground v.1.15,2013-03-25 20:35:00,
2013-03-25 21:45:00,59.7,46.2,29.65,SSW,209,9.0,10.0,61,0.00,,,0.00,0,Wunderground v.1.15,2013-03-25 20:45:00,
2013-03-25 21:55:00,59.5,46.5,29.64,WSW,250,9.0,9.0,62,0.00,,,0.00,0,Wunderground v.1.15,2013-03-25 20:55:00,
2013-03-25 22:11:00,59.5,46.5,29.64,WSW,237,9.0,10.0,62,0.00,,,0.00,0,Wunderground v.1.15,2013-03-25 21:11:00,
2013-03-25 22:20:00,59.5,46.5,29.63,WSW,241,10.0,15.0,62,0.00,,,0.00,0,Wunderground v.1.15,2013-03-25 21:20:00,
2013-03-25 22:25:00,59.6,46.6,29.64,SSW,202,10.0,10.0,62,0.00,,,0.00,0,Wunderground v.1.15,2013-03-25 21:25:00,
2013-03-25 22:40:00,59.5,46.5,29.63,WSW,240,8.0,8.0,62,0.00,,,0.00,0,Wunderground v.1.15,2013-03-25 21:40:00,
2013-03-25 22:55:00,59.5,46.5,29.64,West,263,8.0,8.0,62,0.00,,,0.00,0,Wunderground v.1.15,2013-03-25 21:55:00,
2013-03-25 23:10:00,59.8,46.7,29.63,SSW,204,7.0,17.0,62,0.00,,,0.00,0,Wunderground v.1.15,2013-03-25 22:10:00,
2013-03-25 23:21:00,59.8,46.7,29.62,West,281,8.0,8.0,62,0.00,,,0.00,0,Wunderground v.1.15,2013-03-25 22:21:00,
2013-03-25 23:35:00,59.7,46.7,29.61,WNW,288,9.0,9.0,62,0.00,,,0.00,0,Wunderground v.1.15,2013-03-25 22:35:00,
2013-03-25 23:50:00,60.0,46.9,29.61,WSW,258,10.0,10.0,62,0.00,,,0.00,0,Wunderground v.1.15,2013-03-25 22:50:00,